Location: Newark
(39.6867°N, 100.6772°W)
Time: 13:59:58
(UTC+00:00)

Vanguard 1 - Pass Details

Date: 22 October 2019
Orbit: 652 x 3831 km, 34.2° (Epoch: 17 November)

Event Time Altitude Azimuth Distance (km) Brightness Sun altitude
Rises 03:34:31 0° 266° (W) 4,407 14.1 -42.2°
Reaches altitude 10° 03:36:54 10° 264° (W) 3,719 13.5 -42.6°
Enters shadow 03:45:11 63° 223° (SW) 2,364 11.7 -44.1°
Maximum altitude 03:47:04 69° 184° (S) 2,433 - -44.4°
Drops below altitude 10° 04:05:55 10° 106° (ESE) 6,458 - -47.5°
Sets 04:11:40 0° 105° (ESE) 7,755 - -48.4°
